Location: Bucharest
(44.4268°N, 26.1025°E)
Time: 01:28:14
(UTC+03:00)

O/OREOS (USA 219) - Pass Details

Date: 05 July 2022
Orbit: 621 x 646 km, 72.0° (Epoch: 22 May)

Event Time Altitude Azimuth Distance (km) Brightness Sun altitude
Rises 01:56:24 0° 324° (NW) 2,965 ? -22.3°
Reaches altitude 10° 01:59:01 10° 311° (NW) 2,051 ? -22.2°
Enters shadow 02:02:22 24° 264° (W) 1,347 ? -22.1°
